Wind_Speed
15 14 14 14 13 12 12 12 11 11 11 11 11 10 9 9 9 9 9 9 9 9 8 8 8 8 8 8 8 8 8 9 9 9 9 10 10 10 11 11 11 12 12
17 16 16 15 15 14 13 13 12 12 13 12 12 12 11 11 10 10 10 9 9 9 9 9 9 9 9 9 9 9 9 9 10 10 10 11 11 11 12 12 12 12 13
19 18 18 17 16 16 15 14 14 13 13 14 14 13 13 12 11 11 11 11 10 10 10 10 10 11 11 11 10 10 10 10 11 11 11 11 12 12 13 13 13 13 14
21 20 19 19 18 18 17 16 16 15 15 15 15 15 14 14 13 12 12 12 12 12 11 12 12 12 12 11 11 12 12 12 12 12 13 13 13 13 13 14 14 14 15
23 22 21 21 20 19 18 18 17 17 16 16 16 16 15 15 14 14 14 13 13 13 13 13 13 13 13 12 12 13 13 13 13 14 14 14 14 14 15 15 15 15 16
25 25 24 23 22 21 20 19 18 18 17 17 17 17 16 16 15 15 15 14 14 14 14 14 14 14 14 14 14 14 14 15 15 15 15 15 15 15 16 16 16 17 17
28 27 26 25 24 22 21 20 20 19 18 18 18 18 18 17 16 16 16 15 15 15 15 15 15 15 15 15 15 15 16 16 16 16 16 16 16 17 17 17 17 18 18
30 30 28 27 25 24 22 21 21 20 20 19 19 19 19 18 17 17 16 16 16 16 16 16 16 16 16 16 16 17 17 17 18 18 18 18 18 18 18 19 19 20 20
32 31 30 29 27 26 24 23 22 21 21 21 20 20 20 19 19 19 18 18 17 17 17 17 17 17 17 18 18 18 18 19 19 19 19 19 20 20 21 21 21 22 22
33 33 32 31 29 27 25 24 24 23 22 22 21 21 21 21 20 20 19 19 19 19 18 18 18 18 18 19 19 19 20 20 20 20 21 21 21 22 22 23 23 23 23
34 33 33 32 31 29 27 25 25 24 24 23 22 22 21 22 22 21 21 21 20 20 20 20 20 19 19 19 20 20 21 21 21 22 22 23 23 23 23 24 24 24 24
35 34 33 32 32 30 29 27 26 26 25 24 23 23 23 23 23 23 22 22 22 21 21 21 21 21 21 20 21 21 22 22 23 23 24 24 24 24 24 25 25 25 25
36 34 33 33 33 31 30 28 27 27 26 26 25 24 24 24 24 24 24 23 23 23 22 22 22 22 22 22 22 22 22 23 24 24 25 25 25 25 26 26 26 26 26
36 35 35 33 33 32 31 30 27 27 27 27 27 26 26 25 25 25 25 25 25 24 24 24 24 24 24 24 24 24 24 24 24 25 25 25 26 26 26 27 26 27 27
36 35 35 34 33 32 32 31 30 29 28 28 28 28 27 27 27 27 26 26 26 26 25 25 26 26 26 26 26 26 26 26 26 26 26 27 27 27 27 27 27 28 28
35 34 33 33 33 33 32 32 32 30 29 28 29 29 29 29 28 28 28 28 28 27 27 26 26 26 26 26 27 27 27 27 27 27 27 27 27 27 27 27 27 28 28
36 35 34 33 34 33 32 32 32 32 31 30 29 29 29 29 30 30 30 30 29 29 28 27 27 27 26 27 28 28 28 27 28 28 28 28 28 28 28 27 28 28 28
35 36 35 34 34 34 33 33 33 32 32 31 30 29 30 31 31 30 30 30 31 30 30 28 27 28 28 29 29 29 29 29 29 29 29 29 28 28 28 28 28 29 29
34 34 34 34 34 34 34 34 34 33 33 32 32 30 30 30 31 31 30 30 31 31 30 30 29 30 29 29 30 30 30 30 30 30 30 29 29 29 30 30 30 30 31
32 33 33 33 34 34 34 34 34 33 33 32 32 32 31 31 31 31 31 31 32 32 32 32 31 31 31 31 31 31 32 32 31 31 30 30 30 31 31 31 32 32 32
31 32 32 32 32 34 34 34 33 32 31 31 31 33 32 31 32 33 33 33 34 34 34 34 34 33 33 33 32 33 33 33 32 32 32 32 32 32 32 32 33 34 34
30 30 30 30 31 32 33 33 32 31 31 31 31 32 33 33 33 33 34 34 34 35 35 35 35 35 35 34 34 34 34 34 34 34 34 34 34 34 34 34 34 35 35
28 28 27 28 29 30 31 31 32 31 31 32 32 32 33 34 34 35 35 35 35 36 36 35 36 36 35 35 35 35 35 35 35 35 35 35 35 35 35 35 35 35 36
28 27 27 27 28 28 30 31 32 32 32 33 33 34 34 34 34 35 36 35 36 36 36 36 35 36 36 36 36 36 36 36 35 35 36 36 36 36 37 37 36 36 37
27 27 27 27 28 29 30 31 32 33 33 34 34 34 34 35 35 36 36 36 37 37 37 38 38 37 37 38 38 38 38 38 38 37 37 37 37 38 38 38 38 38 38
27 27 27 28 28 28 29 31 32 33 33 34 34 34 35 36 37 37 37 37 37 38 38 38 39 39 39 40 40 40 40 39 39 39 39 39 39 39 40 40 40 40 40
Wind_Direction
231 230 230 231 233 235 239 244 245 245 247 247 250 250 250 251 252 250 251 252 253 254 255 257 260 263 265 268 271 273 275 276 278 281 283 284 285 286 287 288 288 288 287
231 231 232 233 234 236 239 243 247 247 247 249 251 252 252 251 251 252 252 252 255 256 256 258 261 264 268 272 274 277 279 280 281 283 285 286 286 287 288 289 288 288 289
233 233 233 235 235 237 240 243 247 249 249 249 250 251 251 250 249 250 252 253 255 257 258 260 263 266 270 272 275 278 280 281 282 284 286 287 287 288 288 288 288 288 289
231 233 234 235 236 238 240 242 247 250 251 249 249 250 250 249 249 249 251 254 257 259 262 265 266 269 271 272 275 277 278 280 281 283 285 286 287 288 289 289 288 288 289
231 232 233 235 236 237 240 243 246 250 251 249 249 249 248 249 249 250 252 255 259 261 264 267 269 270 270 272 275 276 277 278 280 281 283 285 287 288 290 290 290 289 289
230 230 232 234 236 237 240 244 247 249 250 249 248 249 248 249 249 250 253 255 259 262 265 267 270 270 271 273 275 276 277 278 280 281 282 283 285 287 289 290 291 291 290
230 231 231 232 234 236 239 243 247 249 249 248 247 247 248 249 250 252 253 255 258 262 265 267 270 270 271 273 275 277 278 279 281 281 281 283 284 285 287 288 289 290 291
230 231 230 232 234 236 239 243 246 248 247 246 246 247 248 249 250 252 253 254 257 261 264 267 269 270 271 273 275 277 278 280 282 283 282 283 284 285 286 287 287 288 289
229 231 229 230 234 236 238 242 245 247 247 245 246 247 247 248 250 251 252 254 257 260 264 267 269 270 272 273 274 276 278 280 282 283 283 284 284 285 286 286 287 288 289
230 231 230 230 232 235 238 241 244 245 247 246 246 247 248 250 252 252 253 254 257 259 263 267 269 271 273 273 274 275 277 279 281 282 283 284 284 285 286 287 287 287 288
230 230 229 229 231 235 237 241 243 245 247 247 247 247 249 251 253 253 254 254 256 259 262 266 269 271 273 274 275 277 278 279 280 281 282 283 283 284 285 286 287 287 288
231 230 230 229 230 233 237 240 242 244 246 247 248 248 250 252 254 254 254 255 256 259 261 265 269 271 272 274 276 279 280 281 281 282 282 282 282 283 284 285 286 285 286
229 231 231 230 230 233 237 240 241 242 244 246 247 248 250 252 254 255 254 256 257 259 262 264 268 270 272 273 276 279 281 282 284 283 282 282 282 284 285 285 285 285 284
227 229 232 231 231 233 237 239 241 241 243 245 248 250 250 252 254 255 255 256 257 259 261 265 268 270 272 273 275 278 280 282 283 283 282 281 282 284 285 285 284 283 283
225 228 231 232 232 234 237 239 241 243 243 245 249 251 251 253 254 255 256 256 257 259 261 265 268 270 272 273 275 277 279 280 280 281 281 282 283 283 284 285 283 281 282
226 228 229 232 234 235 238 240 242 244 245 246 249 253 253 254 256 256 256 256 257 259 262 265 268 270 272 274 275 277 277 278 278 281 282 283 283 282 283 284 283 282 282
227 229 231 232 235 237 239 240 242 244 245 247 251 254 254 255 258 257 257 258 258 260 263 265 267 269 272 274 275 275 275 277 279 281 282 283 283 282 283 284 283 283 282
226 229 231 232 236 238 239 240 243 245 246 248 251 253 255 256 257 257 258 259 260 261 263 264 267 270 273 275 274 274 275 277 279 279 281 282 283 283 283 283 283 283 282
226 230 231 234 237 238 239 240 243 246 248 249 252 254 257 257 257 256 258 260 262 262 264 265 267 270 273 275 275 275 276 277 278 278 279 281 282 283 283 284 284 284 283
227 232 235 237 241 241 241 242 244 247 248 250 252 253 257 258 257 257 257 260 262 263 264 266 268 269 271 273 274 274 276 276 277 278 278 280 282 284 284 284 283 283 283
229 233 237 239 243 242 243 245 248 249 250 253 255 254 258 260 259 258 258 260 262 263 264 266 268 270 270 271 272 274 275 276 277 278 278 280 282 283 284 284 283 283 283
231 236 238 241 244 244 245 247 249 250 251 252 253 256 259 262 262 261 258 260 261 263 265 267 269 270 270 270 272 274 275 275 276 278 278 280 281 282 283 284 284 283 282
231 235 237 240 243 245 246 247 250 252 254 255 256 258 259 261 262 262 261 261 263 263 265 267 268 269 270 271 273 274 274 274 276 277 278 279 279 280 283 284 284 283 282
232 237 239 240 243 247 248 248 250 253 254 256 258 260 261 262 262 261 261 261 263 264 266 268 269 270 270 272 273 273 274 276 276 276 277 278 279 280 282 283 283 283 282
233 237 241 243 246 249 250 251 253 254 256 257 259 261 263 263 263 263 262 261 263 264 266 268 269 271 272 272 273 273 274 275 276 276 277 278 279 281 282 283 283 282 282
238 241 244 246 249 251 252 253 255 256 257 258 259 261 262 263 264 265 264 264 265 265 267 269 270 271 272 273 273 273 274 275 277 277 278 279 280 281 282 283 283 283 282
Height
5860 5861 5862 5863 5864 5864 5865 5866 5866 5867 5868 5868 5869 5869 5869 5870 5870 5870 5870 5870 5870 5870 5870 5870 5870 5870 5870 5869 5869 5869 5869 5868 5868 5867 5867 5867 5866 5866 5865 5865 5864 5863 5863
5857 5858 5860 5861 5862 5862 5863 5864 5864 5865 5866 5866 5867 5867 5868 5868 5868 5868 5868 5869 5869 5869 5869 5869 5869 5868 5868 5868 5868 5867 5867 5867 5866 5866 5865 5865 5864 5864 5863 5863 5862 5861 5861
5853 5855 5856 5858 5859 5860 5861 5861 5862 5863 5863 5864 5864 5865 5865 5866 5866 5866 5867 5867 5867 5867 5867 5867 5867 5867 5867 5866 5866 5866 5865 5865 5864 5864 5863 5863 5862 5862 5861 5860 5860 5859 5858
5849 5851 5852 5854 5855 5857 5858 5859 5859 5860 5861 5861 5862 5862 5863 5863 5864 5864 5865 5865 5865 5865 5865 5865 5865 5865 5865 5864 5864 5864 5863 5863 5862 5862 5861 5861 5860 5859 5858 5858 5857 5856 5855
5845 5846 5848 5850 5851 5853 5854 5855 5856 5857 5858 5858 5859 5859 5860 5861 5861 5862 5862 5862 5863 5863 5863 5863 5863 5862 5862 5862 5862 5861 5861 5860 5860 5859 5859 5858 5857 5857 5856 5855 5854 5853 5853
5840 5841 5843 5845 5847 5849 5850 5852 5853 5853 5854 5855 5856 5856 5857 5858 5858 5859 5859 5860 5860 5860 5860 5860 5860 5860 5860 5860 5859 5859 5858 5858 5857 5857 5856 5855 5854 5854 5853 5852 5851 5850 5850
5834 5835 5838 5840 5842 5844 5846 5848 5849 5850 5851 5852 5852 5853 5854 5855 5855 5856 5856 5857 5857 5857 5857 5857 5857 5857 5857 5857 5856 5856 5855 5855 5854 5854 5853 5852 5852 5851 5850 5849 5848 5847 5846
5828 5830 5833 5835 5838 5840 5842 5843 5845 5846 5847 5848 5849 5850 5850 5851 5852 5853 5853 5853 5854 5854 5854 5854 5854 5854 5854 5854 5853 5853 5852 5852 5851 5850 5850 5849 5848 5847 5846 5845 5844 5843 5842
5821 5824 5827 5830 5832 5835 5837 5838 5840 5841 5842 5843 5845 5846 5847 5848 5848 5849 5849 5850 5850 5851 5851 5851 5851 5850 5850 5850 5849 5849 5848 5848 5847 5847 5846 5845 5844 5843 5842 5841 5840 5839 5838
5815 5817 5820 5823 5826 5829 5832 5833 5835 5836 5838 5839 5840 5841 5843 5844 5844 5845 5846 5846 5847 5847 5847 5847 5847 5846 5846 5846 5845 5845 5844 5844 5843 5843 5842 5841 5840 5839 5838 5837 5836 5834 5833
5808 5811 5814 5818 5821 5824 5826 5828 5830 5831 5833 5834 5836 5837 5838 5839 5840 5841 5841 5842 5842 5843 5843 5843 5843 5842 5842 5842 5841 5841 5840 5840 5839 5838 5837 5836 5835 5834 5833 5832 5831 5829 5828
5802 5805 5808 5811 5815 5818 5821 5823 5824 5826 5828 5829 5831 5832 5834 5835 5836 5836 5837 5837 5838 5838 5838 5839 5838 5838 5838 5837 5837 5836 5835 5835 5834 5833 5832 5831 5830 5829 5828 5827 5826 5824 5823
5795 5799 5802 5805 5809 5812 5815 5817 5819 5821 5822 5824 5826 5827 5828 5829 5830 5831 5832 5832 5833 5833 5834 5834 5833 5833 5833 5833 5832 5831 5831 5830 5829 5828 5827 5826 5825 5824 5823 5822 5820 5819 5818
5789 5793 5796 5799 5803 5806 5809 5811 5813 5815 5817 5819 5820 5822 5823 5824 5825 5826 5826 5827 5828 5828 5828 5829 5828 5828 5828 5828 5827 5826 5826 5825 5824 5823 5822 5821 5819 5818 5817 5816 5814 5813 5812
5781 5786 5790 5793 5797 5800 5802 5805 5807 5809 5811 5813 5815 5816 5817 5818 5819 5820 5821 5822 5822 5823 5823 5823 5823 5823 5822 5822 5822 5821 5820 5820 5819 5818 5816 5815 5814 5813 5811 5810 5808 5807 5806
5775 5779 5783 5787 5790 5793 5796 5798 5801 5803 5805 5807 5808 5810 5811 5812 5813 5814 5815 5816 5817 5817 5817 5818 5818 5817 5817 5817 5816 5816 5815 5814 5813 5812 5811 5809 5808 5807 5806 5804 5803 5801 5800
5770 5773 5777 5780 5784 5787 5789 5792 5794 5796 5799 5801 5802 5803 5804 5806 5807 5808 5809 5810 5811 5811 5812 5812 5812 5812 5811 5811 5811 5810 5809 5808 5807 5806 5805 5803 5802 5801 5800 5798 5797 5796 5795
5763 5767 5770 5774 5777 5780 5783 5785 5788 5790 5792 5794 5796 5797 5798 5799 5800 5802 5803 5804 5804 5805 5805 5805 5806 5806 5806 5805 5805 5804 5803 5802 5801 5800 5799 5797 5796 5795 5794 5792 5791 5790 5789
5757 5760 5764 5767 5770 5774 5776 5779 5781 5784 5786 5787 5789 5790 5791 5793 5794 5795 5796 5797 5798 5798 5799 5799 5799 5799 5799 5799 5798 5797 5796 5795 5794 5794 5793 5791 5790 5789 5787 5786 5785 5784 5782
5750 5753 5757 5761 5764 5767 5769 5772 5774 5776 5779 5780 5782 5783 5785 5786 5787 5788 5789 5790 5791 5792 5792 5792 5792 5792 5792 5792 5791 5791 5790 5788 5788 5787 5786 5785 5783 5782 5781 5779 5778 5777 5775
5745 5748 5752 5754 5757 5760 5763 5765 5767 5770 5771 5773 5775 5777 5778 5779 5780 5781 5782 5783 5783 5784 5785 5785 5785 5785 5785 5784 5784 5783 5783 5781 5780 5780 5779 5778 5776 5775 5773 5772 5770 5769 5768
5740 5743 5746 5749 5751 5754 5756 5758 5761 5763 5765 5766 5767 5769 5770 5772 5773 5774 5775 5775 5776 5776 5777 5777 5778 5778 5777 5777 5777 5776 5775 5774 5773 5772 5771 5770 5768 5767 5766 5764 5763 5761 5760
5735 5738 5740 5743 5745 5747 5750 5752 5754 5756 5758 5759 5761 5762 5763 5764 5766 5766 5767 5767 5768 5769 5769 5769 5770 5770 5769 5769 5768 5768 5767 5766 5765 5764 5763 5762 5760 5759 5758 5756 5755 5753 5751
5730 5732 5735 5737 5739 5741 5743 5745 5747 5749 5750 5752 5753 5754 5755 5756 5758 5758 5759 5759 5760 5761 5761 5761 5761 5761 5761 5760 5760 5759 5759 5758 5757 5757 5755 5754 5752 5751 5749 5748 5746 5744 5743
5724 5727 5729 5731 5733 5735 5737 5739 5740 5742 5743 5744 5746 5747 5747 5748 5749 5750 5751 5751 5752 5752 5752 5753 5753 5753 5752 5752 5751 5750 5750 5749 5748 5748 5747 5745 5744 5742 5740 5739 5737 5735 5733
5718 5721 5723 5725 5727 5729 5730 5732 5733 5734 5735 5736 5738 5739 5739 5740 5741 5741 5742 5742 5743 5743 5743 5743 5744 5743 5743 5742 5742 5741 5740 5740 5739 5738 5737 5736 5734 5733 5731 5729 5727 5725 5723